Wind_Speed
48 48 49 50 51 51 52 53 53 52 51 52 53 54 55 56 57 59 60 61 62 63 64 65 66 67 68 69 70 71 72 73 73 74 74 74 74 74
50 50 51 51 52 52 54 54 55 56 55 55 56 57 59 60 61 63 64 65 66 67 68 69 71 72 73 74 75 76 77 78 78 78 78 78 78 78
51 52 52 53 53 55 56 57 58 59 59 58 60 62 63 65 66 67 68 69 70 71 73 74 75 76 77 77 78 79 79 80 80 79 79 79 80 80
52 53 54 55 56 57 59 60 61 62 64 63 64 66 68 69 70 71 71 72 74 75 76 76 77 78 78 78 78 78 78 78 79 79 79 79 79 79
54 54 56 57 59 60 62 63 64 66 67 68 68 70 71 72 73 74 74 75 76 77 77 77 77 77 76 76 76 75 75 75 75 75 74 74 74 74
55 56 58 60 61 63 65 66 68 69 70 72 72 72 72 73 75 75 75 75 76 76 76 76 76 75 75 74 73 72 71 70 69 68 68 68 67 67
57 59 60 62 64 66 68 69 70 71 72 73 73 73 73 74 75 75 75 74 73 74 74 74 73 72 70 69 68 66 65 64 62 61 60 60 60 60
59 61 62 65 67 68 69 71 72 73 73 73 73 73 73 73 74 74 74 74 73 72 72 69 68 65 64 62 60 58 56 55 53 52 51 51 51 51
61 63 65 67 68 70 71 72 72 73 74 74 74 73 73 73 74 73 73 73 71 69 67 63 60 58 56 54 52 50 49 48 46 45 43 42 42 42
63 65 67 69 70 71 72 73 72 72 73 74 74 73 73 73 74 73 72 70 67 63 61 58 54 52 50 48 46 45 43 41 39 37 36 35 35 35
66 68 69 70 71 73 73 72 71 71 72 72 73 73 73 72 71 70 67 65 60 55 54 52 49 46 43 41 40 38 36 35 33 31 31 30 30 30
67 69 70 71 71 72 72 72 72 71 71 71 71 71 69 67 65 63 60 57 53 49 46 45 42 40 35 34 33 32 31 30 28 27 26 26 25 25
68 69 70 71 71 71 72 72 72 71 71 69 68 65 63 60 58 55 53 51 47 44 41 39 36 34 31 28 28 28 27 25 24 23 23 22 22 21
69 69 70 70 70 71 71 71 70 70 68 65 62 60 57 55 52 49 47 45 42 39 37 35 32 30 27 24 23 24 23 22 21 20 20 19 19 19
69 70 70 70 70 70 70 69 67 65 62 60 58 55 53 50 47 45 42 40 37 34 33 31 28 26 24 22 21 21 20 19 18 18 17 17 16 16
69 70 70 69 69 68 66 64 62 60 58 56 54 51 48 46 44 40 37 34 31 30 29 27 25 23 21 20 19 18 17 16 16 15 15 15 15 15
70 69 68 67 65 63 61 59 57 55 54 52 49 45 43 41 39 36 33 30 28 27 26 24 22 21 19 17 16 15 15 15 14 14 13 13 13 13
69 67 66 63 61 58 56 54 53 52 50 47 44 42 40 37 34 31 29 28 26 24 23 21 20 18 17 16 15 14 13 13 13 12 12 12 12 12
67 64 62 59 57 55 53 51 50 48 46 43 40 38 36 34 30 28 27 26 24 22 20 19 17 16 15 14 13 13 13 12 12 11 11 11 11 11
63 61 58 56 54 53 51 49 47 45 42 39 37 35 33 30 27 26 25 23 22 20 18 17 15 14 13 12 12 12 12 11 11 10 10 10 10 10
59 57 56 54 52 50 48 45 43 41 38 36 34 32 30 28 26 25 23 22 20 18 16 15 14 13 12 12 11 12 11 10 10 10 10 10 10 10
57 55 53 51 49 47 45 42 40 38 36 34 32 30 28 25 24 23 21 20 18 16 15 14 13 13 12 11 11 11 11 10 10 10 10 10 10 10
54 52 50 48 46 44 41 40 38 36 34 32 30 28 25 24 22 21 19 18 16 15 14 13 13 12 12 11 11 11 11 11 11 11 11 11 11 11
Wind_Direction
299 299 299 300 300 299 299 299 298 298 297 296 296 295 294 293 293 292 291 290 289 288 287 287 286 285 284 283 282 281 279 278 277 276 274 273 272 270
299 299 300 300 300 300 300 300 299 299 298 297 296 295 295 294 294 293 292 291 290 289 288 287 286 286 285 284 283 281 280 278 277 276 274 272 271 270
300 300 300 300 300 300 300 300 300 299 299 298 298 297 296 295 294 293 292 292 291 290 290 289 288 287 286 284 283 281 280 278 276 275 273 272 270 269
300 300 301 301 301 301 301 301 300 300 300 299 298 297 296 295 294 294 293 292 292 291 290 290 289 288 287 286 284 282 280 279 277 275 273 272 271 269
300 301 301 301 302 301 301 301 301 300 300 299 299 298 297 296 295 294 294 293 292 292 291 290 290 289 288 287 285 284 282 280 278 276 274 272 270 269
301 302 302 302 302 302 302 301 301 301 300 300 299 299 298 297 296 296 295 295 294 293 292 291 290 289 289 287 286 284 283 281 279 276 274 272 270 268
302 302 302 302 303 303 302 302 302 302 301 301 300 300 299 298 298 297 296 296 295 294 293 292 291 290 289 288 287 285 283 282 280 277 275 273 270 267
302 302 302 303 303 303 303 303 303 303 302 302 301 301 300 299 299 298 298 297 296 295 294 293 292 291 290 288 287 285 284 282 280 278 276 273 269 266
303 303 304 304 304 304 304 304 304 303 303 303 302 302 301 301 300 300 299 298 298 297 294 294 292 292 290 289 287 286 284 283 281 278 275 272 269 265
304 304 305 305 305 304 304 304 304 304 303 303 303 303 302 302 301 300 299 299 299 297 295 294 293 292 290 288 286 285 284 282 280 278 275 272 268 265
305 306 306 306 305 305 305 305 305 304 303 303 303 303 303 302 302 301 301 300 300 298 296 296 294 292 290 288 285 284 282 281 279 277 275 272 269 264
306 307 307 306 306 306 306 306 306 305 304 304 304 304 304 303 302 302 302 301 301 300 298 297 295 293 291 288 284 282 281 280 278 275 274 272 268 264
307 307 307 307 307 307 307 307 307 306 306 306 305 305 304 303 303 302 302 302 302 301 300 298 297 294 292 289 283 281 279 277 275 274 273 270 267 264
308 307 308 308 307 307 307 307 307 307 307 307 307 306 305 304 303 302 302 302 301 301 300 298 297 295 293 289 283 279 277 275 273 272 271 268 265 262
308 309 309 308 308 308 308 307 307 308 308 308 308 307 306 305 304 303 301 300 299 299 299 298 297 296 293 288 283 279 275 273 270 269 268 265 261 258
309 310 309 309 309 309 309 308 308 308 308 309 309 308 307 306 305 303 302 300 299 298 297 297 295 294 292 287 283 278 272 267 266 266 265 261 259 256
310 310 310 310 309 309 309 309 309 308 308 309 309 308 308 308 306 303 301 299 298 296 295 294 293 291 290 286 281 276 268 264 263 263 262 258 255 252
311 311 311 311 311 310 311 311 310 310 309 309 308 308 308 308 306 303 301 299 298 296 293 291 290 288 286 282 278 272 265 262 262 260 256 252 250 247
311 312 312 312 311 311 311 311 312 311 310 309 308 307 308 307 305 303 302 300 298 295 292 289 287 285 281 278 275 270 264 260 257 254 250 246 243 241
312 312 312 312 312 312 312 312 312 312 312 310 309 308 307 307 305 304 302 300 298 294 290 286 284 282 279 276 271 266 260 256 250 245 243 240 235 230
312 312 312 312 312 312 312 312 312 312 312 311 310 309 307 306 304 303 301 299 297 292 286 282 279 277 275 273 267 260 255 250 242 238 236 234 229 222
312 312 312 312 312 312 312 312 312 312 311 311 310 309 307 305 304 302 300 298 295 289 284 279 275 273 272 271 263 255 250 242 235 231 230 227 224 219
312 312 312 312 312 312 312 312 312 311 310 310 310 308 306 304 302 300 298 296 292 287 282 276 273 270 269 266 257 251 245 237 230 227 225 222 219 214
Height
5688 5684 5679 5675 5670 5665 5661 5656 5653 5650 5648 5642 5636 5631 5625 5621 5616 5612 5607 5602 5598 5593 5588 5584 5580 5576 5572 5569 5566 5564 5561 5559 5557 5556 5556 5555 5556 5556
5676 5672 5667 5662 5657 5652 5647 5643 5637 5633 5631 5628 5621 5615 5609 5604 5599 5594 5589 5583 5578 5573 5568 5563 5559 5554 5550 5546 5542 5539 5536 5534 5532 5530 5529 5529 5529 5529
5664 5659 5654 5649 5644 5639 5633 5628 5623 5617 5614 5612 5605 5598 5592 5586 5580 5574 5569 5563 5557 5551 5546 5540 5535 5529 5525 5520 5516 5512 5509 5506 5504 5502 5501 5501 5501 5502
5651 5646 5641 5635 5630 5624 5618 5613 5607 5600 5595 5593 5588 5580 5573 5566 5560 5554 5547 5541 5535 5529 5522 5516 5510 5504 5498 5493 5488 5484 5480 5478 5476 5474 5473 5473 5473 5473
5639 5633 5627 5621 5616 5609 5603 5597 5590 5583 5576 5571 5568 5560 5553 5544 5537 5531 5524 5518 5511 5504 5498 5491 5485 5478 5472 5466 5461 5457 5453 5451 5448 5446 5445 5445 5445 5446
5625 5619 5613 5606 5600 5593 5587 5580 5572 5565 5558 5551 5545 5539 5531 5522 5514 5507 5502 5495 5488 5480 5473 5466 5460 5454 5448 5441 5436 5432 5428 5425 5423 5421 5420 5420 5420 5421
5612 5605 5598 5591 5584 5576 5569 5562 5553 5546 5538 5530 5524 5517 5510 5500 5491 5483 5477 5472 5465 5455 5448 5443 5436 5430 5424 5417 5412 5408 5405 5403 5401 5400 5399 5398 5398 5399
5598 5591 5583 5575 5567 5559 5551 5543 5534 5525 5517 5509 5502 5495 5487 5478 5469 5461 5453 5447 5443 5436 5425 5421 5413 5408 5402 5397 5392 5388 5385 5383 5381 5380 5380 5379 5379 5380
5582 5575 5567 5559 5550 5542 5534 5525 5516 5506 5496 5488 5481 5473 5465 5457 5447 5440 5431 5423 5418 5410 5402 5399 5393 5388 5383 5378 5374 5371 5368 5366 5365 5364 5363 5363 5363 5364
5566 5558 5550 5542 5532 5523 5515 5507 5498 5488 5477 5468 5460 5453 5444 5435 5425 5417 5409 5403 5398 5390 5381 5378 5375 5370 5367 5362 5358 5356 5354 5352 5351 5350 5350 5350 5350 5351
5550 5541 5532 5524 5515 5504 5496 5488 5480 5470 5459 5450 5441 5432 5423 5414 5403 5395 5388 5381 5378 5373 5365 5360 5357 5354 5352 5348 5345 5342 5341 5340 5340 5339 5339 5339 5340 5341
5535 5525 5515 5505 5496 5485 5476 5468 5460 5451 5441 5432 5423 5413 5404 5395 5386 5377 5370 5364 5359 5356 5351 5346 5343 5339 5339 5337 5334 5332 5331 5330 5330 5330 5330 5330 5331 5332
5517 5508 5498 5487 5478 5468 5458 5448 5439 5430 5422 5413 5405 5396 5387 5378 5370 5362 5355 5350 5346 5342 5338 5334 5331 5328 5327 5327 5325 5323 5322 5322 5322 5322 5323 5323 5324 5325
5499 5490 5480 5470 5460 5451 5440 5430 5420 5411 5403 5394 5387 5378 5370 5363 5356 5349 5343 5338 5334 5330 5327 5324 5321 5319 5318 5317 5317 5316 5315 5315 5315 5316 5316 5317 5318 5319
5480 5472 5462 5452 5443 5433 5423 5412 5403 5394 5385 5378 5370 5363 5355 5348 5342 5337 5332 5328 5324 5321 5318 5315 5313 5312 5310 5310 5310 5309 5309 5309 5309 5310 5311 5311 5312 5314
5463 5454 5444 5434 5424 5415 5405 5396 5387 5378 5370 5363 5356 5349 5342 5336 5330 5326 5322 5318 5316 5313 5310 5307 5306 5305 5304 5304 5303 5303 5303 5304 5304 5305 5306 5307 5308 5309
5445 5437 5427 5417 5408 5399 5390 5381 5372 5364 5357 5349 5343 5337 5331 5325 5320 5316 5313 5310 5308 5306 5303 5301 5300 5299 5298 5298 5298 5298 5298 5299 5300 5301 5302 5303 5304 5305
5427 5419 5410 5400 5391 5383 5375 5367 5359 5351 5344 5337 5331 5326 5321 5316 5311 5308 5304 5302 5300 5298 5297 5295 5294 5294 5293 5293 5293 5294 5294 5295 5296 5297 5298 5299 5301 5302
5410 5402 5393 5384 5376 5368 5360 5353 5346 5339 5332 5326 5320 5315 5311 5307 5303 5300 5297 5295 5293 5292 5290 5289 5289 5289 5289 5289 5289 5289 5290 5291 5292 5293 5295 5296 5298 5299
5395 5386 5378 5370 5362 5354 5347 5340 5334 5327 5321 5315 5310 5306 5302 5298 5295 5293 5290 5288 5287 5285 5285 5284 5284 5284 5284 5285 5285 5285 5286 5287 5289 5290 5292 5293 5295 5297
5380 5372 5364 5356 5349 5341 5335 5328 5322 5317 5311 5306 5302 5298 5294 5291 5288 5286 5284 5282 5281 5280 5279 5279 5279 5280 5280 5281 5281 5282 5283 5284 5286 5288 5289 5291 5293 5295
5367 5358 5350 5343 5336 5329 5323 5318 5312 5307 5302 5298 5294 5290 5287 5284 5282 5280 5278 5276 5275 5275 5274 5275 5275 5275 5276 5277 5277 5278 5280 5281 5283 5285 5287 5289 5291 5293
5353 5345 5338 5331 5324 5318 5313 5308 5303 5298 5294 5290 5286 5283 5280 5278 5276 5274 5272 5271 5270 5270 5270 5270 5271 5271 5272 5273 5274 5275 5276 5278 5280 5282 5284 5286 5288 5291